Location: Newark
(12.5331°N, 56.4669°W)
Time: 00:36:57
(UTC+00:00)

LightSail 2 - Pass Details

Date: 02 February 2020
Orbit: 700 x 722 km, 24.0° (Epoch: 20 February)

Event Time Altitude Azimuth Distance (km) Brightness Sun altitude
Rises 23:12:59 0° 268° (W) 3,064 9.9 -20.9°
Reaches altitude 10° 23:16:02 10° 251° (WSW) 2,150 8.8 -21.6°
Maximum altitude 23:19:34 19° 206° (SSW) 1,636 7.4 -22.5°
Drops below altitude 10° 23:23:08 10° 162° (SSE) 2,159 7.6 -23.3°
Enters shadow 23:23:56 - 156° (SSE) 2,379 7.7 -23.5°
